Tracking 28911 objects as of 22-May-2024
HD Live streaming from Space Station
objects crossing your sky now

MRC-100

Track MRC-100 now!
10-day predictions
MRC-100 is classified as:


NORAD ID: 56993
Int'l Code: 2023-084BV
Perigee: 479.2 km
Apogee: 496.2 km
Inclination: 97.5 °
Period: 94.2 minutes
Semi major axis: 6858 km
RCS: Unknown
Launch date: June 12, 2023
Source: Hungary (HUN)
Launch site: AIR FORCE WESTERN TEST RANGE (AFWTR)

Uplink (MHz):
Downlink (MHz): 436.720
Beacon (MHz):
Mode: 1k25/2k5/5k/12k5*GMSK
Call sign:
Status: Active

Your satellite tracking list
Your tracking list is empty




NASA's NSSDC Master Catalog

Two Line Element Set (TLE):
1 56993U 23084BV  24142.85673962  .00050151  00000-0  18013-2 0  9995
2 56993  97.5292 262.2866 0012426 120.5273 239.7195 15.28419828 52196
Source of the keplerian elements: AFSPC